Погода в Кяхте

Погода в Кяхте : погода сейчас, прогноз погоды и архив. Всё, что Вы хотите узнать о погоде в Кяхте!

Поиск расширенной информации на нашем сайте:

Другие новости

Новости СМИ2

Главная страница сайта

Новости сайта

03.07.2017

Напоминаем, что на нашем специализированном сайте Метеоцентр.Азия вы можете получить высокодетализированные автоматические прогнозы погоды по пунктам России, СНГ и мира в авиационном формате (включающие направление и скорость ветра, видимость, явления погоды, количество и форму облачности, нижнюю и верхнюю границу облачности).

Рекомендуем: Популярные фирмы - стеклобанка. В паллетах

Погода в Кяхте - сегодня

Время (UTC), дата Ветер
(°,м/с) 
Видим.   Явления Облачность Т
(°С)
Тd
(°С)
f(%) Тe
(°С)
Pmin
(гПа)
dP
(гПа)
Po
(мм)
O2
(г/м3)
Тmin Tmax R s Состояние
почвы
03 21.02.18 тихо ()   10 км  дым  10/10 2000 м 
[As trans]
-12.1 -20 52 -12  1027.8  0.1  695  294           
06 21.02.18 150 (ЮВ) 20000 м    10/10 2000 м 
[As trans]
-8.8 -18.3 46 -12  1024.8  -1.5  694  290           
09 21.02.18 200 (Ю) 20000 м    10/10 2000 м 
[As trans]
-8.9 -18.2 47 -11  1023.6  -1.2  693  290           
15 21.02.18 020 (С) н/о    10/3 2000 м средняя, верхняя 
[As trans|Cs]
-13.4 -17.5 71 -13  1023.3  -0.9  692  295           
18 21.02.18 350 (С) н/о    10/3 2000 м средняя, верхняя 
[As trans|Cs]
-14.4 -17.9 75 -14  1022.8  -1.1  691  295           
21 21.02.18 тихо ()   н/о    6/0 верхняя 
[Cs]
-17.7 -19.6 85 -18  1023.5  -0.7  691  299           
00 22.02.18 320 (СЗ) 20000 м    10/4 2000 м средняя, верхняя 
[Ac lent|Cs]
-16.7 -18.4 87 -17  1022.7  -0.3  690  298  -18.5      равномерный
сухой снег
100% 
03 22.02.18 080 (В) 10 км  дым  8/3 2000 м средняя, верхняя 
[Ac trans|Cs]
-13 -16.5 75 -13  1020.8  -0.3  690  293           
06 22.02.18 120 (ЮВ) 20000 м  слаб. снег  10/8 2000 м средняя, верхняя 
[Ac As|Cs]
-9.7 -13.5 74 -11  1018.5  -0.9  690  289           
09 22.02.18 100 (В) 20000 м  {снег}  10/8 2000 м средняя, верхняя 
[Ac As|Cs]
-10 -13.4 76 -12  1019.7  0.9  690  290           
12 22.02.18 340 (С) н/о  {снег}  10/4 2000 м средняя, верхняя 
[Ac As|Cs]
-12.3 -19.3 56 -14  1022.9  2.1  692  293    -9.3  0.0     
15 22.02.18 360 (С) н/о    3/1 2000 м средняя, верхняя 
[Ac trans|Ci fib]
-18.5 -22.1 73 -19  1028  2.3  694  301           
18 22.02.18 350 (С) н/о    3/0 верхняя 
[Ci fib]
-20.7 -23.2 80 -21  1030.8  1.6  695  304           
21 22.02.18 320 (СЗ) н/о    1/0 верхняя 
[Ci fib]
-21.5 -23.9 81 -22  1032.1  0.8  695  306           
00 23.02.18 310 (СЗ) 20000 м    3/0 верхняя 
[Ci fib]
-22.9 -25.5 79 -23  1034.1  1.3  696  308  -23      равномерный
сухой снег
100% 
03 23.02.18 160 (Ю) 20000 м    9/0 верхняя 
[Ci fib]
-16.2 -20.2 71 -19  1032.2  0.8  697  300           
06 23.02.18 170 (Ю) 20000 м    8/0 верхняя 
[Ci fib]
-10.5 -19.1 49 -15  1028.8  -0.9  696  293           
09 23.02.18 170 (Ю) 20000 м    6/0 верхняя 
[Ci fib]
-9.9 -18.6 49 -12  1028.3  -0.3  696  292           
15 23.02.18 350 (С) н/о    3/0 верхняя 
[Ci fib]
-13.7 -18.2 69 -14  1030.6  697  297           
18 23.02.18 тихо ()   н/о    10/0 верхняя 
[Ci fib]
-15.6 -19 75 -16  1030.4  -0.9  696  299           
21 23.02.18 350 (С) н/о    6/0 верхняя 
[Ci fib]
-17.7 -19.7 84 -20  1030.1  -1  695  301           
00 24.02.18 тихо ()   20000 м    10/0 верхняя 
[Ci fib]
-18.4 -20.9 81 -18  1030  -0.4  695  302  -18.7      равномерный
сухой снег
100% 
03 24.02.18 150 (ЮВ) 20000 м    1/0 верхняя 
[Ci fib]
-14 -19 66 -14  1028.7  0.5  695  297           
06 24.02.18 140 (ЮВ) 20000 м    1/0 верхняя 
[Ci fib]
-9.6 -15.7 61 -13  1025.8  -1.1  694  291           
09 24.02.18 160 (Ю) 20000 м    3/0 верхняя 
[Ci fib]
-8.1 -14.7 59 -10  1024.5  -0.6  694  289           
Время (UTC), дата Ветер
(°,м/с) 
Видим.   Явления Облачность Т
(°С)
Тd
(°С)
f(%) Тe
(°С)
Pmin
(гПа)
dP
(гПа)
Po
(мм)
O2
(г/м3)
Тmin Tmax R s Состояние
почвы

Для получения пояснительной информации подведите курсор к названию столбца.

ПОГОДА в Кяхте - архив

Всё, что Вы хотите узнать о погоде в Кяхте - удобно и подробно!

Выберите нужную дату (начиная с 1 января 2015* года) и нажмите кнопку "Найти".
Будут отображены архивные сводки погоды по пункту Кяхта, начиная с указанной даты.


Отображать данные в формате CSV (для использования в таблицах Excel)


Внимание! Наш архив погоды предназначен исключительно для личного некоммерческого использования в познавательных целях. Если Вам необходимы официальные справки о состоянии погоды (для производственных, юридических, коммерческих и т.п. целей), обращайтесь в органы Росгидромета.

*Примечание: данная дата относится к архиву по метеостанциям СССР (Россия, СНГ, Балтия).
Архив по метеостанциям Зарубежной Европы и Азии (кроме Китая) хранится 10 дней, по другим регионам земного шара (Китай, Африка, Америка, Австралия, Океания) - 1 день.

Кяхта - район местоположения метеостанции


Название, широта, долгота, высота метеостанции:
Кяхта 50.4°ш. 106.4°д. 797 м над ур. моря [Российская Федерация]

Дополнительная информация

В oтличие oт бoльшинства пoгoдных сайтoв мы публикуем пoдрoбную метеoинфoрмацию в детальнoм прoфессиoнальнoм фoрмате.

Характеристики температуры и влажнoсти вoздуха измеряются на высoте 2 м в тени вдали oт зданий и деревьев.
Скoрoсть ветра измеряется на высoте 10 м (на урoвне рoста челoвека скoрoсть ветра ниже в 1.5-2 раза). Если метеoстанция нахoдится в гoрoде или в лесу, тo скoрoсть ветра занижена на 2-4 м/с пo сравнению с oткрытым местoм. Скoрoсть ветра над акватoриями крупных рек и oзёр, а также на вершинах хoлмoв на 2-5 м/с выше, чем в oбычных услoвиях.
Атмoсфернoе давление в разных тoчках местнoсти мoжет значительнo oтличаться oт давления на метеoстанции, в зависимoсти oт услoвий рельефа (при пoдъёме на 10 м давление пoнижается примернo на 1 мм рт.ст.).